User: anonymous   Login
Location: Gipe Farm
(40.9466°N, 95.5370°W)
Time: 23:23:48
(UTC-05:00)
Language:

Cosmos 1842 - Orbit

View from above orbital plane
View from above orbital plane
View from above satellite
View from above satellite

Ground track
Ground track

The orbit data is extracted from the following two-line orbital elements,

1 17911U 87038A   14298.42149127  .00007558  00000-0  50027-3 0  6055
2 17911 082.4941 056.9542 0012542 294.5932 065.3988 15.07141976496074
Epoch (UTC): 25 October 2014 10:06:56
Eccentricity: 0.0012542
inclination: 82.4941°
perigee height: 536 km
apogee height: 553 km
right ascension of ascending node: 56.9542°
argument of perigee: 294.5932°
revolutions per day: 15.07141976
mean anomaly at epoch: 65.3988°
orbit number at epoch: 49607

The dashed part of the orbit path shows where the satellite is in the earth's shadow,  

DLR